Location: Unspecified
(0.0000°N, 0.0000°E)
Time: 09:37:19
(UTC+02:00)

ARIANE 5 DEB (SYLDA) - Visible Passes

Search period start: 01 September 2014 00:00
Search period end: 11 September 2014 00:00
Orbit: 151 x 4885 km, 1.4° (Epoch: 31 August)

Date Brightness Start Highest point End Pass type
(mag) Time Alt. Az. Time Alt. Az. Time Alt. Az.
01 Sep 4.3 06:01:57 67° W 06:03:10 90° N 06:18:30 10° E visible
01 Sep 3.2 21:32:47 10° W 21:41:15 79° N 21:41:28 76° NNE visible
02 Sep 5.7 05:02:30 32° E 05:02:30 32° E 05:08:29 10° E visible
02 Sep 5.6 07:19:43 11° W 07:27:25 88° S 07:48:25 10° E visible
02 Sep 4.7 20:11:19 10° W 20:25:35 85° N 20:30:59 10° E visible
02 Sep 6.1 22:46:03 10° W 22:47:16 15° W 22:47:16 15° W visible
03 Sep 4.0 06:03:11 74° W 06:03:53 89° S 06:16:47 10° E visible
03 Sep 3.9 21:06:26 10° W 21:17:24 81° N 21:19:30 38° E visible
04 Sep 4.7 06:44:29 29° W 06:48:08 87° S 07:02:59 10° E visible
04 Sep 3.5 21:38:19 10° W 21:47:49 79° N 21:48:01 77° NNE visible
05 Sep 6.3 04:53:46 16° E 04:53:46 16° E 04:55:28 10° E visible
05 Sep 4.8 07:05:46 18° W 07:10:46 86° S 07:25:51 10° E visible
05 Sep 3.7 21:46:54 10° W 21:56:06 77° NNW 21:56:06 77° NNW visible
06 Sep 6.4 04:56:19 14° E 04:56:19 14° E 04:57:22 10° E visible
06 Sep 4.6 07:06:25 18° W 07:11:02 85° S 07:24:43 10° E visible
06 Sep 3.7 21:31:33 10° W 21:42:15 80° N 21:43:07 65° ENE visible
07 Sep 4.0 06:45:48 32° W 06:48:25 84° S 06:59:21 10° E visible
07 Sep 4.6 20:51:20 10° W 21:04:42 82° N 21:08:27 27° E visible
07 Sep 6.6 23:14:35 10° W 23:15:07 12° W 23:15:07 12° W visible
08 Sep 3.6 06:03:19 63° ESE 06:03:19 63° ESE 06:09:57 10° E visible
08 Sep 4.4 22:07:55 10° W 22:16:05 58° WNW 22:16:05 58° WNW visible
09 Sep 3.8 07:02:13 21° W 07:05:17 81° S 07:14:43 10° E visible
09 Sep 4.9 20:34:10 10° W 20:48:42 83° N 20:54:06 19° E visible
09 Sep 6.0 22:52:49 10° W 22:56:24 24° W 22:56:24 24° W visible
10 Sep 5.8 05:32:02 15° E 05:32:02 15° E 05:33:03 10° E visible
10 Sep 4.8 20:50:43 10° W 21:04:23 82° N 21:08:42 27° E visible
10 Sep 6.3 23:06:07 10° W 23:08:38 19° W 23:08:38 19° W visible
